Regional Weather Roundup
Issued by NWS Charleston, WV

Home | Current Version | Previous Version | Text Only | Print | Product List | Glossary On
Versions: 1 2 3 4 5 6 7 8 9 10 11 12 13 14 15 16 17 18 19 20 21 22 23 24 25 26 27 28
000
ASUS41 KRLX 050710
RWRRLX
West Virginia Regional Weather Roundup
National Weather Service Charleston WV
300 AM EDT THU MAY 05 2016

Note: "fair" indicates few or no clouds below 12,000 feet with no
significant weather and/or obstructions to visibility.

WVZ003-050800-
Northern Panhandle of West Virginia

CITY           SKY/WX    TMP DP  RH WIND       PRES   REMARKS
WHEELING       LGT RAIN  49  47  93 E5        29.67F FOG
$$

WVZ009-050800-
Northwest West Virginia

CITY           SKY/WX    TMP DP  RH WIND       PRES   REMARKS
PARKERSBURG    CLOUDY    48  46  93 NW5       29.70F
$$

WVZ006-050800-
Western West Virginia

CITY           SKY/WX    TMP DP  RH WIND       PRES   REMARKS
HUNTINGTON       N/A     45  42  89 CALM      29.71F
$$

WVZ015-050800-
West Central West Virginia

CITY           SKY/WX    TMP DP  RH WIND       PRES   REMARKS
CHARLESTON     LGT RAIN  48  45  89 W5        29.69F FOG
$$

WVZ022-031-050800-
North Central West Virginia

CITY           SKY/WX    TMP DP  RH WIND       PRES   REMARKS
CLARKSBURG     LGT RAIN  48  47  96 CALM      29.66F
MORGANTOWN     CLOUDY    50  45  83 CALM      29.68F
$$

WVZ025-035-042-045-050800-
Southern West Virginia

CITY           SKY/WX    TMP DP  RH WIND       PRES   REMARKS
BECKLEY        CLOUDY    45  42  89 W7        29.66F
LOGAN          NOT AVBL
BLUEFIELD      LGT RAIN  43  41  93 W6        29.66F
LEWISBURG      LGT RAIN  46  45  95 CALM      29.65F
$$

WVZ047-050800-
Northern Mountains of West Virginia

CITY           SKY/WX    TMP DP  RH WIND       PRES   REMARKS
ELKINS         CLOUDY    47  43  86 CALM      29.66F
$$

WVZ052-050800-
Eastern Panhandle of West Virginia

CITY           SKY/WX    TMP DP  RH WIND       PRES   REMARKS
MARTINSBURG    LGT RAIN  51  49  92 E6        29.67F FOG
PETERSBURG     CLOUDY    53  49  89 CALM      29.66F
$$




USA.gov is the U.S. government's official web portal to all federal, state and local government web resources and services.